Flag for Austria Weather past 2 weeks in Wels, Upper Austria, Austria

Now
78 °F

Passing clouds.


Feels Like: 79 °F
Forecast: 59 / 80 °F
Wind: 3 mph from West

Location: Linz / Hoersching-Flughafen

Current Time: Jun 3, 2015 at 11:54:47 AM

Latest Report: Jun 3, 2015 at 11:00 AM


Visibility: 19 mi

Pressure: 30.15 "Hg

Humidity: 52%

Dew point: 59 °F

Location of WelsLocation

Historic Weather in Wels — Graph

°F

Wels temperature yesterday

Maximum temperature yesterday: 80 °F (at 5:00 PM)
Minimum temperature yesterday: 59 °F (at 6:00 AM)
Average temperature yesterday: 68 °F

Past Weeks' High & Low Weather Summary

 TemperatureHumidityPressure
High80 °F (Jun 2, 5:00 PM)99% (Jun 1, 5:00 AM)30.28 "Hg (Jun 1, 5:00 AM)
Low45 °F (May 28, 5:00 AM)35% (May 31, 4:00 PM)29.77 "Hg (May 29, 7:00 PM)
Average57 °F78%30.04 "Hg
* Reported May 19 11:00 AM — Jun 3 11:00 AM, Wels, Weather by CustomWeather, © 2015

Note: Actual official high and low records may vary slightly from our data, if they occured in-between our weather recording intervals... More about our weather records

Advertising

Wels weather history for previous 24 hours

 ConditionsComfort  
Time TempWeatherWind HumidityBarometerVisibility
11:00 AM
Wed, Jun 3
78 °FPassing clouds.3 mph52%30.15 "Hg19 mi
10:00 AM74 °FPassing clouds.N/A58%30.16 "Hg15 mi
9:00 AM70 °FPassing clouds.N/A66%30.16 "Hg16 mi
8:00 AM67 °FScattered clouds.N/A73%30.16 "Hg19 mi
7:00 AM62 °FScattered clouds.N/A88%30.15 "Hg16 mi
6:00 AM61 °FPartly sunny.N/A90%30.14 "Hg14 mi
5:00 AM60 °FPassing clouds.N/A92%30.14 "Hg19 mi
4:00 AMN/APassing clouds.9 mphN/AN/A18 mi
3:00 AMN/APassing clouds.13 mphN/AN/A14 mi
2:00 AM62 °FPassing clouds.N/A84%30.11 "Hg19 mi
1:00 AM64 °FPassing clouds.N/A79%30.10 "Hg25 mi
12:00 AM65 °FOvercast.N/A84%30.09 "Hg28 mi
11:00 PM
Tue, Jun 2
68 °FPassing clouds.N/A72%30.08 "Hg28 mi
10:00 PM70 °FPassing clouds.N/A64%30.07 "Hg31 mi
9:00 PM73 °FPassing clouds.N/A54%30.05 "Hg31 mi
8:00 PM77 °FPassing clouds.N/A47%30.03 "Hg28 mi
7:00 PM78 °FPassing clouds.N/A44%30.03 "Hg25 mi
6:00 PM78 °FPassing clouds.N/A44%30.03 "Hg28 mi
5:00 PM80 °FScattered clouds.N/A41%30.03 "Hg22 mi
4:00 PM78 °FScattered clouds.N/A43%30.04 "Hg22 mi
3:00 PM77 °FPartly sunny.N/A43%30.06 "Hg19 mi
2:00 PM75 °FPartly sunny.N/A54%30.07 "Hg22 mi
1:00 PM73 °FPartly sunny.N/A61%30.09 "Hg18 mi
12:00 PM70 °FPartly sunny.N/A64%30.10 "Hg14 mi
11:00 AM70 °FOvercast.N/A64%30.11 "Hg16 mi
Weather by CustomWeather, © 2015

See weather overviewHow to use our weather pages